Terug naar catalogus

STARLINK-32479

ActiefCommunicatieVLEO
NORAD 62148·PAYLOAD·🇺🇸 United States

Gelanceerd Nov 30, 2024 vanaf Cape Canaveral Space Force Station

Loading…

Volgende Passages (komende 24 uur)

TLE

VersSource: CelesTrak SupGP

Epoch: Sep 15, 2026, 02:17 UTC

1 62148C 24224K   26258.09562500 -.00019240  00000+0 -69693-3 0  2586
2 62148  43.0022 168.4266 0001466 272.2894 224.1971 15.27585026    16

Volg STARLINK-32479 in realtime met AllMySat

Download on the App Store